(210113) = 2006 QY169

Discovered at Anderson Mesa on 2006-08-28 by LONEOS.

Orbit

Orbit type: Main Belt

Note: WebGL enabled browser required.

epoch2024-03-31.0
epoch JD2460400.5
perihelion date2023-06-12.84500
perihelion JD2460108.34500
argument of perihelion (°)243.03250
ascending node (°)159.92953
inclination (°)16.90476
eccentricity0.1226621
perihelion distance (AU)2.7118771
Tisserand w.r.t. Jupiter3.1
ΔV w.r.t. Earth (km/sec)11.5
semimajor axis (AU)3.0910294
mean anomaly (°)52.98616
mean daily motion (°/day)0.18136320
aphelion distance (AU)3.470
period (years)5.43
P-vector [x]0.71858909
P-vector [y]0.69517738
P-vector [z]0.01892410
Q-vector [x]-0.68823821
Q-vector [y]0.70698475
Q-vector [z]0.16279042
absolute magnitude14.87
phase slope0.15
uncertainty0
referenceMPEC 2024-D119
observations used863
oppositions17
arc length (days)8629
first opposition used2000
last opposition used2024
residual rms (arc-secs)0.68
perturbers coarse indicatorM-v
perturbers precise indicator003Ek
first observation date used2000-07-07.0
last observation date used2024-02-21.0
computer nameMPCLINUX
JD of orbit computation2456819.557968
perihelion JD uncertainty (days)1.2156E-04
argument of perihelion uncertainty (°)2.9559E-05
ascending node uncertainty (°)1.7941E-05
inclination uncertainty (°)5.9622E-06
eccentricity uncertainty 5.9971E-08
perihelion distance uncertainty (AU)1.7037E-07
Minimum Orbit Intersection Distances (in AU)
for orbit epoch: 2460400.5, reference: E2024-DB9
Mercury2.395
Venus2.01028
Earth1.76354
Mars1.35464
Jupiter2.08814
Saturn6.12111
Uranus15.1299
Neptune27.0883

Observations

873 total observations over interval: 2000 07 07.29345 – 2024 02 21.360618
These data are available for download (format description).

Date (UT) J2000 RA J2000 Dec Magn Location Ref
2000 07 07.29345 21 29 56.99 -02 51 08.4 21.0 V 691 – Steward Observatory, Kitt Peak-Spacewatch MPS 182512
2000 07 07.31459 21 29 56.53 -02 51 12.1 21.0 V 691 – Steward Observatory, Kitt Peak-Spacewatch MPS 182512
2000 07 07.33586 21 29 56.05 -02 51 15.6 21.3 V 691 – Steward Observatory, Kitt Peak-Spacewatch MPS 182512
2000 09 03.19702 20 54 35.08 -09 24 32.7 18.7   704 – Lincoln Laboratory ETS, New Mexico MPS 182512
2000 09 03.21063 20 54 34.64 -09 24 38.9 19.1   704 – Lincoln Laboratory ETS, New Mexico MPS 182512
2000 09 03.22429 20 54 34.31 -09 24 45.0 19.1   704 – Lincoln Laboratory ETS, New Mexico MPS 182512
2001 11 17.27524 04 00 49.21 -05 13 37.5 18.6 R 699 – Lowell Observatory-LONEOS MPS 182819
2001 11 17.30033 04 00 48.00 -05 13 43.4   699 – Lowell Observatory-LONEOS MPS 182819
2001 11 17.32547 04 00 46.84 -05 13 49.7   699 – Lowell Observatory-LONEOS MPS 182819
2001 11 17.35940 04 00 45.18 -05 13 58.6   699 – Lowell Observatory-LONEOS MPS 182819
2001 12 14.14182 03 41 22.57 -05 37 21.1 19.4   644 – Palomar Mountain/NEAT MPS 182819
2001 12 14.16277 03 41 21.82 -05 37 18.0 19.2   644 – Palomar Mountain/NEAT MPS 182819
2001 12 14.18291 03 41 21.11 -05 37 14.9 19.9   644 – Palomar Mountain/NEAT MPS 182819
2003 02 12.41115 10 16 54.94 +06 08 46.9 19.8   608 – Haleakala-AMOS MPS 272652
2003 02 12.42165 10 16 54.51 +06 08 52.1 20.0   608 – Haleakala-AMOS MPS 272652
2003 02 12.43255 10 16 54.04 +06 08 57.2 20.1   608 – Haleakala-AMOS MPS 272652
2004 03 28.48702 15 02 10.59 +01 39 51.3 21.0 V 691 – Steward Observatory, Kitt Peak-Spacewatch MPS 272652
2004 03 28.50080 15 02 10.27 +01 39 57.2 21.1 V 691 – Steward Observatory, Kitt Peak-Spacewatch MPS 272652
2004 03 28.51436 15 02 09.96 +01 40 03.6 21.7 V 691 – Steward Observatory, Kitt Peak-Spacewatch MPS 272652
2006 08 28.30047 01 04 44.65 -02 34 58.0 18.6 C 704 – Lincoln Laboratory ETS, New Mexico MPS 294350
2006 08 28.31144 01 04 44.61 -02 35 05.1 18.8 C 704 – Lincoln Laboratory ETS, New Mexico MPS 294350
2006 08 28.32242 01 04 44.52 -02 35 11.3 18.9 C 704 – Lincoln Laboratory ETS, New Mexico MPS 294350
2006 08 28.33361 01 04 44.38 -02 35 17.5 19.2 C 704 – Lincoln Laboratory ETS, New Mexico MPS 294350
2006 08 28.34470 01 04 44.25 -02 35 22.1 18.5 C 704 – Lincoln Laboratory ETS, New Mexico MPS 294350
2006 08 28.37046 01 04 44.09 -02 35 36.4 18.8 R 699 – Lowell Observatory-LONEOS MPS 179470
2006 08 28.38874 01 04 43.86 -02 35 46.1   699 – Lowell Observatory-LONEOS MPS 179470
2006 08 28.40702 01 04 43.68 -02 35 55.6   699 – Lowell Observatory-LONEOS MPS 179470
2006 08 28.42530 01 04 43.52 -02 36 05.3   699 – Lowell Observatory-LONEOS MPS 179470
2006 09 12.44976 01 00 14.18 -05 03 23.8 18.6 V 703 – Catalina Sky Survey MPS 179470
2006 09 12.45618 01 00 14.00 -05 03 26.8 18.1 V 703 – Catalina Sky Survey MPS 179470
2006 09 12.46260 01 00 13.71 -05 03 31.5 18.7 V 703 – Catalina Sky Survey MPS 179470
2006 09 12.46902 01 00 13.57 -05 03 35.4 18.6 V 703 – Catalina Sky Survey MPS 179470
2006 09 19.32462 00 56 48.66 -06 16 22.6 18.5 V 703 – Catalina Sky Survey MPS 181204
2006 09 19.33785 00 56 48.22 -06 16 31.5 18.5 V 703 – Catalina Sky Survey MPS 181204
2006 09 19.35105 00 56 47.72 -06 16 39.6 18.5 V 703 – Catalina Sky Survey MPS 181204
2006 09 19.36426 00 56 47.25 -06 16 48.6 18.5 V 703 – Catalina Sky Survey MPS 181204
2006 09 26.34839 00 52 39.43 -07 30 53.9 18.5 V 703 – Catalina Sky Survey MPS 181204
2006 09 26.35676 00 52 39.14 -07 30 58.4 18.6 V 703 – Catalina Sky Survey MPS 181204
2006 09 26.36508 00 52 38.78 -07 31 04.5 18.6 V 703 – Catalina Sky Survey MPS 181204
2006 09 26.37344 00 52 38.46 -07 31 09.1 18.6 V 703 – Catalina Sky Survey MPS 181204
2006 10 04.28657 00 47 30.26 -08 51 03.1 18.5 V 703 – Catalina Sky Survey MPS 182819
2006 10 04.29188 00 47 30.04 -08 51 06.3 18.4 V 703 – Catalina Sky Survey MPS 182819
2006 10 04.29723 00 47 29.90 -08 51 09.9 17.9 V 703 – Catalina Sky Survey MPS 182819
2006 10 04.30256 00 47 29.58 -08 51 13.4 18.3 V 703 – Catalina Sky Survey MPS 182819
2006 10 21.18743 00 36 47.62 -11 09 39.4 18.7 V 703 – Catalina Sky Survey MPS 184112
2006 10 21.19776 00 36 47.23 -11 09 42.1 19.2 V 703 – Catalina Sky Survey MPS 184112
2006 10 21.20808 00 36 46.94 -11 09 46.5 19.2 V 703 – Catalina Sky Survey MPS 184112
2006 10 21.21838 00 36 46.54 -11 09 50.3 19.1 V 703 – Catalina Sky Survey MPS 184112
2006 10 23.26827 00 35 38.59 -11 22 34.1 19.0 R 644 – Palomar Mountain/NEAT MPS 184112
2006 10 23.28983 00 35 37.95 -11 22 41.7 18.3 R 644 – Palomar Mountain/NEAT MPS 184112
2006 10 23.31220 00 35 37.19 -11 22 49.8 18.9 R 644 – Palomar Mountain/NEAT MPS 184112
2006 10 28.17733 00 33 11.70 -11 48 54.1 18.9 V 703 – Catalina Sky Survey MPS 185501
2006 10 28.18451 00 33 11.55 -11 48 58.2 19.1 V 703 – Catalina Sky Survey MPS 185501
2006 10 28.19154 00 33 11.34 -11 49 00.5 19.0 V 703 – Catalina Sky Survey MPS 185501
2006 10 28.19858 00 33 11.12 -11 49 01.5 19.2 V 703 – Catalina Sky Survey MPS 185501
2008 12 30.53081 12 57 58.15 -00 49 09.8 21.0 V 691 – Steward Observatory, Kitt Peak-Spacewatch MPS 270182
2008 12 30.54387 12 57 58.71 -00 49 09.7 20.5 V 691 – Steward Observatory, Kitt Peak-Spacewatch MPS 270182
2008 12 30.55668 12 57 59.26 -00 49 09.6 20.6 V 691 – Steward Observatory, Kitt Peak-Spacewatch MPS 270182
2009 02 20.40697 13 13 31.04 +02 07 33.8 19.6   704 – Lincoln Laboratory ETS, New Mexico MPS 277606
2009 02 20.41873 13 13 30.89 +02 07 37.2 20.1   704 – Lincoln Laboratory ETS, New Mexico MPS 277606
2009 02 20.43066 13 13 30.73 +02 07 42.9 20.1   704 – Lincoln Laboratory ETS, New Mexico MPS 277606
2009 02 20.44255 13 13 30.60 +02 07 48.2 20.0   704 – Lincoln Laboratory ETS, New Mexico MPS 277606
2009 02 20.45455 13 13 30.44 +02 07 53.4 20.3   704 – Lincoln Laboratory ETS, New Mexico MPS 277606
2009 03 02.42411 13 10 41.37 +03 22 32.6 20.1 V G96 – Mt. Lemmon Survey MPS 278689
2009 03 02.43080 13 10 41.23 +03 22 35.6 20.1 V G96 – Mt. Lemmon Survey MPS 278689
2009 03 02.43768 13 10 41.05 +03 22 38.9 20.2 V G96 – Mt. Lemmon Survey MPS 278689
2009 03 02.44444 13 10 40.90 +03 22 42.2 20.4 V G96 – Mt. Lemmon Survey MPS 278689
2009 03 27.34077 12 57 03.38 +06 50 02.5 19.5 V 703 – Catalina Sky Survey MPS 283563
2009 03 27.34649 12 57 03.13 +06 50 05.4 19.8 V 703 – Catalina Sky Survey MPS 283563
2009 03 27.35229 12 57 02.95 +06 50 09.6 19.0 V 703 – Catalina Sky Survey MPS 283563
2009 03 27.35816 12 57 02.70 +06 50 11.4 19.5 V 703 – Catalina Sky Survey MPS 283563
2009 03 27.38031 12 57 01.69 +06 50 22.3 19.6 V 703 – Catalina Sky Survey MPS 283563
2009 03 27.38730 12 57 01.47 +06 50 26.1 19.7 V 703 – Catalina Sky Survey MPS 283563
2009 03 27.39431 12 57 01.22 +06 50 29.0 20.0 V 703 – Catalina Sky Survey MPS 283563
2009 03 27.40127 12 57 00.90 +06 50 31.7 19.4 V 703 – Catalina Sky Survey MPS 283563
2009 04 02.32518 12 53 00.31 +07 37 06.8 19.4 V G96 – Mt. Lemmon Survey MPS 283563
2009 04 02.33523 12 52 59.91 +07 37 11.4 19.5 V G96 – Mt. Lemmon Survey MPS 283563
2009 04 02.34532 12 52 59.48 +07 37 15.9 19.7 V G96 – Mt. Lemmon Survey MPS 283563
2009 04 02.35549 12 52 59.05 +07 37 20.5 19.5 V G96 – Mt. Lemmon Survey MPS 283563
2009 04 21.23539 12 40 47.53 +09 37 08.7 19.0   704 – Lincoln Laboratory ETS, New Mexico MPS 285597
2009 04 21.24618 12 40 47.16 +09 37 12.7 19.4   704 – Lincoln Laboratory ETS, New Mexico MPS 285597
2009 04 21.25761 12 40 46.73 +09 37 15.7 19.5   704 – Lincoln Laboratory ETS, New Mexico MPS 285597
2009 04 21.28146 12 40 45.91 +09 37 21.8 19.5   704 – Lincoln Laboratory ETS, New Mexico MPS 285597
2009 04 21.29252 12 40 45.51 +09 37 25.5 19.5   704 – Lincoln Laboratory ETS, New Mexico MPS 285597
2010 03 06.37808 17 10 56.90 -05 38 14.0   C51 – WISE MPS 337120
2010 03 06.642690 17 11 07.38 -05 37 07.8   C51 – WISE MPS 317759
2010 03 06.841209 17 11 15.10 -05 36 19.7   C51 – WISE MPS 317759
2010 03 06.907299 17 11 17.69 -05 36 03.4   C51 – WISE MPS 317759
2010 03 07.039602 17 11 22.89 -05 35 30.1   C51 – WISE MPS 317759
2010 03 07.03973 17 11 22.98 -05 35 30.5   C51 – WISE MPS 371246
2010 03 07.105818 17 11 25.40 -05 35 12.3   C51 – WISE MPS 317759
2010 03 07.17203 17 11 28.02 -05 34 55.4   C51 – WISE MPS 337120
2010 03 07.238122 17 11 30.60 -05 34 39.7   C51 – WISE MPS 317759
